Location: Melara
(45.0500°N, 11.1833°E)
Time: 17:50:28
(UTC+00:00)

BlueWalker 3 - Pass Details

Date: 01 March 2024
Orbit: 485 x 495 km, 53.2° (Epoch: 20 April)

Event Time Altitude Azimuth Distance (km) Brightness Sun altitude
Rises 17:46:39 0° 302° (WNW) 2,565 6.6 -8.5°
Reaches altitude 10° 17:49:00 10° 313° (NW) 1,680 5.3 -8.9°
Maximum altitude 17:52:26 32° 18° (NNE) 860 2.9 -9.5°
Enters shadow 17:55:14 14° 78° (ENE) 1,451 3.6 -10.0°
